{"data":{"norad_id":50187,"epoch":"2026-05-25T00:53:06.717120Z","epoch_age_seconds":61955,"freshness":"FRESH","line1":"1 50187U 21125AH  26145.03688330  .00015429  00000+0  92943-3 0  9991","line2":"2 50187  53.2143 255.8311 0000784 110.2468 249.8610 15.10976629248254","mean_motion":15.10976629,"eccentricity":7.84e-5,"inclination_deg":53.2143,"raan_deg":255.8311,"arg_perigee_deg":110.2468,"mean_anomaly_deg":249.861,"bstar":0.00092943,"rev_number":24825,"period_min":95.302599150923,"perigee_km":532.67841555489,"apogee_km":533.76211637419,"semimajor_km":6911.3572659645,"source":"CELESTRAK","updated_at":"2026-05-25T13:38:16.870180Z"}}